Tracking 31027 objects as of 19-Jul-2025
HD Live streaming from Space Station
objects crossing your sky now

THORAD AGENA D DEB

Track THORAD AGENA D DEB now!
10-day predictions


NORAD ID: 5129
Int'l Code: 1970-025JN
Perigee: 913.1 km
Apogee: 1,202.3 km
Inclination: 99.3 °
Period: 106.2 minutes
Semi major axis: 7428 km
RCS: 0.0305 m2 (small)
Launch date: April 8, 1970
Source: United States (US)
Launch site: AIR FORCE WESTERN TEST RANGE (AFWTR)

Note: This is SATELLITE DEBRIS
Your satellite tracking list
SL-8 R/B
Track 1 satellite(s)




NASA's NSSDC Master Catalog

Two Line Element Set (TLE):
1  5129U 70025JN  25199.24632397  .00001724  00000-0  22373-2 0  9996
2  5129  99.3142 302.4519 0194649 205.4856 183.5214 13.55917006688636
Source of the keplerian elements: AFSPC